Colby, KS

11:44 PM CST on December 14, 2017 (GMT -0600)
Shaltz

Weather History for KCBK - August, 2012

Change the Weather History Date:

Saturday, August 25, 2012

  Actual Average (KGLD) Record (KGLD)
Temperature  
Mean Temperature 73 °F -  
Max Temperature 82 °F 87 °F 103 °F (1955)
Min Temperature 64 °F 58 °F 40 °F (1964)
Cooling Degree Days 8    
Growing Degree Days 23 (Base 50)    
Moisture  
Dew Point 64 °F    
Average Humidity 80    
Maximum Humidity 100    
Minimum Humidity 51    
Precipitation  
Precipitation 0.00 in - - ()
Sea Level Pressure  
Sea Level Pressure 29.92 in    
Wind  
Wind Speed 7 mph ()    
Max Wind Speed 12 mph    
Max Gust Speed 16 mph    
Visibility 8.4 miles    
Events Fog    
Averages and records for this station are not official NWS values.
T = Trace of Precipitation, MM = Missing Value Source: Averaged Metar Reports

Daily Weather History Graph

Daily Weather History Graph

Search for Another Location

Airport or City:

Trip Planner

Search our weather history database for the weather conditions in past years. The results will help you decide how hot, cold, wet, or windy it might be!

Date:

Astronomy

Aug. 25, 2012 Rise Set
Actual Time 7:06 AM CDT 8:24 PM CDT
Civil Twilight 6:38 AM CDT 8:52 PM CDT
Nautical Twilight 6:05 AM CDT 9:26 PM CDT
Astronomical Twilight 5:30 AM CDT 10:01 PM CDT
Moon 3:59 PM CDT (8/25) 12:52 AM CDT (8/25)
Length of Visible Light 14h 14m
Length of Day
13h 18m
Waxing Gibbous, 63% of the Moon is Illuminated
Aug 25
Waxing Gibbous
Aug 31
Full
Sep 8
Last Quarter
Sep 15
New
Sep 22
First Quarter

Hourly Weather History & Observations

Time (CDT) Temp. Heat Index Dew Point Humidity Pressure Visibility Wind Dir Wind Speed Gust Speed Precip Events Conditions
12:15 AM 68.0 °F - 68.0 °F 100% 29.83 in 3.0 mi SSE 5.8 mph - N/A   Scattered Clouds
12:35 AM 68.0 °F - 68.0 °F 100% 29.84 in 7.0 mi South 10.4 mph - N/A   Scattered Clouds
12:55 AM 68.0 °F - 66.2 °F 94% 29.84 in 10.0 mi South 11.5 mph - N/A   Scattered Clouds
1:15 AM 68.0 °F - 66.2 °F 94% 29.84 in 10.0 mi South 10.4 mph - N/A   Mostly Cloudy
1:35 AM 68.0 °F - 64.4 °F 88% 29.84 in 10.0 mi South 9.2 mph - N/A   Mostly Cloudy
1:55 AM 68.0 °F - 64.4 °F 88% 29.84 in 10.0 mi South 9.2 mph - N/A   Scattered Clouds
2:15 AM 68.0 °F - 64.4 °F 88% 29.84 in 10.0 mi South 9.2 mph - N/A   Clear
2:35 AM 68.0 °F - 64.4 °F 88% 29.83 in 10.0 mi South 8.1 mph - N/A   Clear
2:55 AM 68.0 °F - 64.4 °F 88% 29.84 in 10.0 mi South 10.4 mph - N/A   Scattered Clouds
3:15 AM 68.0 °F - 64.4 °F 88% 29.84 in 10.0 mi SSW 9.2 mph - N/A   Mostly Cloudy
3:35 AM 68.0 °F - 64.4 °F 88% 29.83 in 10.0 mi South 8.1 mph - N/A   Overcast
3:55 AM 68.0 °F - 64.4 °F 88% 29.82 in 10.0 mi South 10.4 mph - N/A   Scattered Clouds
4:15 AM 68.0 °F - 64.4 °F 88% 29.83 in 10.0 mi South 11.5 mph - N/A   Scattered Clouds
4:35 AM 66.2 °F - 64.4 °F 94% 29.82 in 10.0 mi SSW 9.2 mph - N/A   Mostly Cloudy
4:55 AM 66.2 °F - 64.4 °F 94% 29.82 in 10.0 mi SW 10.4 mph - N/A   Scattered Clouds
5:15 AM 64.4 °F - 64.4 °F 100% 29.82 in 10.0 mi SSW 6.9 mph - N/A   Clear
5:35 AM 64.4 °F - 64.4 °F 100% 29.84 in 10.0 mi ESE 8.1 mph - N/A   Clear
5:55 AM 64.4 °F - 64.4 °F 100% 29.85 in 7.0 mi ESE 9.2 mph - N/A   Clear
6:15 AM 64.4 °F - 64.4 °F 100% 29.85 in 5.0 mi ESE 6.9 mph - N/A   Scattered Clouds
6:35 AM 64.4 °F - 64.4 °F 100% 29.86 in 4.0 mi ESE 5.8 mph - N/A   Scattered Clouds
6:55 AM 64.4 °F - 64.4 °F 100% 29.87 in 3.0 mi ESE 6.9 mph - N/A   Mostly Cloudy
7:15 AM 64.4 °F - 64.4 °F 100% 29.87 in 1.5 mi ESE 10.4 mph - N/A   Overcast
7:35 AM 64.4 °F - 64.4 °F 100% 29.88 in 0.5 mi ESE 6.9 mph - N/A Fog Fog
7:55 AM 64.4 °F - 64.4 °F 100% 29.90 in 0.2 mi SSE 3.5 mph - N/A Fog Fog
8:15 AM 64.4 °F - 64.4 °F 100% 29.91 in 0.2 mi SE 4.6 mph - N/A Fog Fog
8:35 AM 64.4 °F - 64.4 °F 100% 29.91 in 0.2 mi SSE 3.5 mph - N/A Fog Fog
8:55 AM 64.4 °F - 64.4 °F 100% 29.91 in 0.8 mi SSE 6.9 mph - N/A   Overcast
9:15 AM 64.4 °F - 64.4 °F 100% 29.92 in 2.5 mi SE 4.6 mph - N/A   Overcast
9:35 AM 64.4 °F - 64.4 °F 100% 29.92 in 3.0 mi SSE 3.5 mph - N/A   Overcast
9:55 AM 66.2 °F - 66.2 °F 100% 29.93 in 4.0 mi Calm Calm - N/A   Overcast
10:15 AM 68.0 °F - 64.4 °F 88% 29.95 in 7.0 mi Calm Calm - N/A   Overcast
10:35 AM 68.0 °F - 66.2 °F 94% 29.95 in 10.0 mi East 3.5 mph - N/A   Overcast
10:55 AM 69.8 °F - 64.4 °F 83% 29.96 in 10.0 mi Calm Calm - N/A   Overcast
11:15 AM 69.8 °F - 64.4 °F 83% 29.96 in 10.0 mi Calm Calm - N/A   Mostly Cloudy
11:35 AM 71.6 °F - 66.2 °F 83% 29.97 in 10.0 mi Calm Calm - N/A   Overcast
11:55 AM 71.6 °F - 64.4 °F 78% 29.97 in 10.0 mi Calm Calm - N/A   Overcast
12:15 PM 73.4 °F - 64.4 °F 73% 29.97 in 10.0 mi North 5.8 mph - N/A   Mostly Cloudy
12:35 PM 75.2 °F - 66.2 °F 73% 29.97 in 10.0 mi North 3.5 mph - N/A   Scattered Clouds
12:55 PM 75.2 °F - 64.4 °F 69% 29.98 in 10.0 mi NE 6.9 mph - N/A   Mostly Cloudy
1:15 PM 77.0 °F - 64.4 °F 65% 29.97 in 10.0 mi Calm Calm - N/A   Mostly Cloudy
1:35 PM 78.8 °F - 66.2 °F 65% 29.97 in 10.0 mi NE 5.8 mph - N/A   Scattered Clouds
1:55 PM 78.8 °F - 64.4 °F 61% 29.97 in 10.0 mi NNE 5.8 mph - N/A   Mostly Cloudy
2:35 PM 78.8 °F - 60.8 °F 54% 29.98 in 10.0 mi NNW 5.8 mph - N/A   Mostly Cloudy
2:55 PM 80.6 °F 81.8 °F 62.6 °F 54% 29.97 in 10.0 mi NNE 10.4 mph - N/A   Scattered Clouds
3:15 PM 80.6 °F 81.8 °F 62.6 °F 54% 29.97 in 10.0 mi NNE 9.2 mph - N/A   Scattered Clouds
3:35 PM 80.6 °F 82.3 °F 64.4 °F 58% 29.97 in 10.0 mi NNE 3.5 mph - N/A   Scattered Clouds
3:55 PM 80.6 °F 82.3 °F 64.4 °F 58% 29.97 in 10.0 mi NNE 9.2 mph - N/A   Mostly Cloudy
4:15 PM 80.6 °F 82.3 °F 64.4 °F 58% 29.97 in 10.0 mi NNE 8.1 mph 16.1 mph N/A   Scattered Clouds
4:35 PM 82.4 °F 83.9 °F 64.4 °F 54% 29.96 in 10.0 mi North 6.9 mph 10.4 mph N/A   Scattered Clouds
4:55 PM 80.6 °F 82.3 °F 64.4 °F 58% 29.96 in 10.0 mi NNE 9.2 mph - N/A   Mostly Cloudy
5:15 PM 82.4 °F 83.9 °F 64.4 °F 54% 29.96 in 10.0 mi North 9.2 mph 12.7 mph N/A   Mostly Cloudy
5:35 PM 82.4 °F 83.4 °F 62.6 °F 51% 29.96 in 10.0 mi NNE 9.2 mph - N/A   Scattered Clouds
5:55 PM 82.4 °F 83.9 °F 64.4 °F 54% 29.96 in 10.0 mi NE 9.2 mph - N/A   Scattered Clouds
6:15 PM 80.6 °F 81.8 °F 62.6 °F 54% 29.96 in 10.0 mi ENE 6.9 mph - N/A   Scattered Clouds
6:35 PM 80.6 °F 81.8 °F 62.6 °F 54% 29.96 in 10.0 mi NNE 5.8 mph - N/A   Scattered Clouds
6:55 PM 80.6 °F 81.8 °F 62.6 °F 54% 29.95 in 10.0 mi NNE 10.4 mph - N/A   Scattered Clouds
7:15 PM 80.6 °F 81.5 °F 60.8 °F 51% 29.95 in 10.0 mi NE 5.8 mph - N/A   Clear
7:35 PM 80.6 °F 81.8 °F 62.6 °F 54% 29.95 in 10.0 mi NE 8.1 mph - N/A   Clear
7:55 PM 78.8 °F - 62.6 °F 57% 29.96 in 10.0 mi ENE 5.8 mph - N/A   Clear
8:15 PM 75.2 °F - 64.4 °F 69% 29.97 in 10.0 mi East 4.6 mph - N/A   Clear
8:35 PM 73.4 °F - 64.4 °F 73% 29.97 in 10.0 mi East 5.8 mph - N/A   Clear
8:55 PM 71.6 °F - 64.4 °F 78% 29.98 in 10.0 mi East 4.6 mph - N/A   Clear
9:15 PM 71.6 °F - 64.4 °F 78% 29.98 in 10.0 mi ESE 3.5 mph - N/A   Clear
9:35 PM 71.6 °F - 64.4 °F 78% 29.99 in 10.0 mi ESE 3.5 mph - N/A   Clear
9:55 PM 69.8 °F - 64.4 °F 83% 30.00 in 10.0 mi ESE 4.6 mph - N/A   Clear
10:15 PM 69.8 °F - 64.4 °F 83% 30.01 in 10.0 mi SE 4.6 mph - N/A   Clear
10:35 PM 68.0 °F - 64.4 °F 88% 30.02 in 10.0 mi Calm Calm - N/A   Clear
11:35 PM 68.0 °F - 64.4 °F 88% 30.03 in 10.0 mi Calm Calm - N/A   Clear
11:55 PM 66.2 °F - 64.4 °F 94% 30.03 in 10.0 mi Calm Calm - N/A   Clear